Regional Weather Roundup
Issued by NWS

Home | Current Version | Previous Version | Text Only | Print | Product List | Glossary Off
Versions: 1 2 3 4 5 6 7 8 9 10 11 12 13 14 15 16 17 18 19 20 21 22 23 24 25 26 27 28 29 30 31 32 33 34 35 36 37 38 39 40 41 42 43 44 45 46 47 48 49 50

000
ASUS45 KSLC 301610
RWRUT

UTAH REGIONAL WEATHER ROUNDUP
NATIONAL WEATHER SERVICE SALT LAKE CITY UT
1000 AM MDT SAT APR 30 2016

UTZ001>011-023>025-301700-

NORTHERN UTAH

CITY           SKY/WX    TMP DP  RH WIND       PRES   REMARKS
BRIGHAM CITY   CLOUDY    51  32  46 CALM      29.97R
HILL AFB       PTSUNNY   46  32  57 E18       29.96R
LOGAN          PTSUNNY   48  41  76 VRB6      29.99R
OGDEN          CLOUDY    51  32  48 NE10      29.95R
PROVO AIRPORT  MOSUNNY   50  37  62 VRB6      29.94R
SALT LAKE CITY MOSUNNY   53  35  50 W7        29.94R
VERNAL         CLOUDY    46  29  51 NE12      29.97R
WENDOVER       CLOUDY    48  37  66 NE7       29.98R
HEBER CITY     MOSUNNY   45  32  61 N6        29.95S

$$

UTZ012>022-026-027-301700-

SOUTHERN/CENTRAL UTAH

CITY           SKY/WX    TMP DP  RH WIND       PRES   REMARKS
BLANDING       CLOUDY    46  36  69 CALM      29.96S
BRYCE CANYON   LGT SNOW  36  34  92 E8        29.90S FOG     WCI  30
CEDAR CITY     CLOUDY    46  38  73 N9        29.84S
DELTA          CLOUDY    48  37  66 N9        29.91S
HANKSVILLE     CLOUDY    48  41  76 N6        29.91S
MILFORD        PTSUNNY   47  41  80 N23       29.89R
MOAB/CYNLANDS  PTSUNNY   54  34  46 E18       29.87F
PRICE          CLOUDY    46  31  55 N10       29.92R
ST GEORGE      CLOUDY    52  45  76 NW6       29.84R

$$

REGIONAL REPORTS     COLORADO/ARIZONA

CITY           SKY/WX    TMP DP  RH WIND       PRES   REMARKS
CRAIG, CO      CLOUDY    40  32  73 VRB3      29.92S
GRAND JUNCTION CLOUDY    47  33  58 NW9       29.90S
RIFLE          CLOUDY    44  30  57 W7        29.90S
MONTROSE       CLOUDY    45  34  65 CALM      29.92S
CORTEZ         CLOUDY    47  36  65 CALM      29.90S
PAGE, AZ       LGT RAIN  50  44  80 W6        29.86R
GRAND CANYON   LGT RAIN  38  35  89 CALM      29.89R FOG
KINGMAN        LGT RAIN  57  41  55 SE7       29.74R
FLAGSTAFF      CLOUDY    41  37  86 SW5       29.89S

$$

REGIONAL REPORTS    NEVADA/IDAHO/WYOMING

CITY           SKY/WX    TMP DP  RH WIND       PRES   REMARKS
LAS VEGAS, NV  LGT RAIN  50  44  80 CALM      29.75R
ELY            PTSUNNY   44  38  79 N20G26    29.95R
ELKO           CLOUDY    46  35  65 CALM      30.02R
POCATELLO, ID  PTSUNNY   46  39  76 CALM      30.03R
BURLEY         CLOUDY    42  38  85 W9G16     30.05R
EVANSTON, WY   CLOUDY    37  27  67 E23G30    29.99F WCI  26
ROCK SPRINGS   LGT SNOW  34  30  85 NE14      30.02R FOG     WCI  25
KEMMERER         N/A     34  30  86 E9G16     30.03R WCI  26

$$



USA.gov is the U.S. government's official web portal to all federal, state and local government web resources and services.